| time (UTC) | temp F | wind direction | speed MPH | gust MPH | rain 1hr in | rain 24hr in | rain mn in | humidity % | barometer mb |
| 20260905234602 | 82 | 162 | 3.0 | 10.0 | 0.00 | 0.00 | 0.00 | 51 | 1011.0 |
| 20260905234059 | 82 | 176 | 4.0 | 11.0 | 0.00 | 0.00 | 0.00 | 48 | 1011.1 |
| 20260905233555 | 82 | 270 | 6.0 | 11.0 | 0.00 | 0.00 | 0.00 | 46 | 1010.9 |
| 20260905233105 | 82 | 300 | 6.0 | 11.0 | 0.00 | 0.00 | 0.00 | 48 | 1010.9 |
| 20260905232556 | 82 | 173 | 3.0 | 9.0 | 0.00 | 0.00 | 0.00 | 46 | 1011.2 |
| 20260905232056 | 82 | 279 | 3.0 | 10.0 | 0.00 | 0.00 | 0.00 | 50 | 1011.1 |
| 20260905231619 | 82 | 263 | 5.0 | 10.0 | 0.00 | 0.00 | 0.00 | 48 | 1011.2 |
| 20260905231055 | 82 | 247 | 5.0 | 11.0 | 0.00 | 0.00 | 0.00 | 48 | 1011.2 |
| 20260905230556 | 82 | 217 | 5.0 | 11.0 | 0.00 | 0.00 | 0.00 | 48 | 1011.2 |
| 20260905230112 | 82 | 271 | 7.0 | 11.0 | 0.00 | 0.00 | 0.00 | 48 | 1011.2 |
| 20260905225555 | 83 | 302 | 5.0 | 11.0 | 0.00 | 0.00 | 0.00 | 50 | 1011.3 |
| 20260905225055 | 83 | 130 | 5.0 | 12.0 | 0.00 | 0.00 | 0.00 | 48 | 1011.2 |
| 20260905224559 | 83 | 168 | 4.0 | 12.0 | 0.00 | 0.00 | 0.00 | 47 | 1011.3 |
| 20260905224055 | 83 | 250 | 4.0 | 11.0 | 0.00 | 0.00 | 0.00 | 47 | 1011.3 |
| 20260905223555 | 83 | 199 | 5.0 | 11.0 | 0.00 | 0.00 | 0.00 | 48 | 1011.5 |
| 20260905223106 | 83 | 148 | 3.0 | 8.0 | 0.00 | 0.00 | 0.00 | 48 | 1011.5 |
| 20260905222557 | 83 | 153 | 4.0 | 9.0 | 0.00 | 0.00 | 0.00 | 48 | 1011.5 |
| 20260905222055 | 83 | 0 | 4.0 | 12.0 | 0.00 | 0.00 | 0.00 | 46 | 1011.6 |
| 20260905221628 | 84 | 169 | 4.0 | 12.0 | 0.00 | 0.00 | 0.00 | 45 | 1011.6 |
| 20260905221055 | 84 | 191 | 5.0 | 10.0 | 0.00 | 0.00 | 0.00 | 43 | 1011.8 |
| 20260905220555 | 84 | 216 | 5.0 | 10.0 | 0.00 | 0.00 | 0.00 | 41 | 1011.7 |
| 20260905220103 | 84 | 201 | 5.0 | 10.0 | 0.00 | 0.00 | 0.00 | 42 | 1011.9 |
| 20260905215556 | 84 | 235 | 4.0 | 10.0 | 0.00 | 0.00 | 0.00 | 42 | 1011.8 |
| 20260905215056 | 84 | 262 | 4.0 | 11.0 | 0.00 | 0.00 | 0.00 | 41 | 1011.8 |
| 20260905214603 | 84 | 181 | 4.0 | 11.0 | 0.00 | 0.00 | 0.00 | 41 | 1011.8 |
| 20260905214057 | 84 | 184 | 3.0 | 9.0 | 0.00 | 0.00 | 0.00 | 42 | 1012.0 |
| 20260905213556 | 83 | 185 | 4.0 | 11.0 | 0.00 | 0.00 | 0.00 | 43 | 1012.0 |
| 20260905213130 | 83 | 160 | 5.0 | 11.0 | 0.00 | 0.00 | 0.00 | 43 | 1012.0 |
| 20260905212557 | 83 | 153 | 2.0 | 9.0 | 0.00 | 0.00 | 0.00 | 45 | 1012.1 |
| 20260905212056 | 83 | 234 | 5.0 | 9.0 | 0.00 | 0.00 | 0.00 | 48 | 1012.1 |
| 20260905211605 | 83 | 186 | 5.0 | 9.0 | 0.00 | 0.00 | 0.00 | 46 | 1012.2 |
| 20260905211055 | 83 | 314 | 2.0 | 9.0 | 0.00 | 0.00 | 0.00 | 49 | 1012.3 |
| 20260905210555 | 82 | 288 | 5.0 | 9.0 | 0.00 | 0.00 | 0.00 | 49 | 1012.3 |
| 20260905210111 | 82 | 286 | 3.0 | 9.0 | 0.00 | 0.00 | 0.00 | 51 | 1012.4 |
| 20260905205556 | 82 | 192 | 4.0 | 8.0 | 0.00 | 0.00 | 0.00 | 52 | 1012.3 |
| 20260905205056 | 82 | 163 | 4.0 | 12.0 | 0.00 | 0.00 | 0.00 | 53 | 1012.4 |
| 20260905204612 | 81 | 160 | 2.0 | 12.0 | 0.00 | 0.00 | 0.00 | 56 | 1012.5 |
| 20260905204055 | 81 | 115 | 5.0 | 12.0 | 0.00 | 0.00 | 0.00 | 56 | 1012.7 |
| 20260905203556 | 81 | 214 | 6.0 | 10.0 | 0.00 | 0.00 | 0.00 | 55 | 1012.7 |
| 20260905203104 | 81 | 159 | 5.0 | 9.0 | 0.00 | 0.00 | 0.00 | 56 | 1012.7 |
| 20260905202556 | 81 | 157 | 4.0 | 10.0 | 0.00 | 0.00 | 0.00 | 55 | 1012.7 |
| 20260905202055 | 81 | 196 | 5.0 | 10.0 | 0.00 | 0.00 | 0.00 | 55 | 1012.7 |
| 20260905201607 | 82 | 245 | 4.0 | 9.0 | 0.00 | 0.00 | 0.00 | 57 | 1012.7 |
| 20260905201059 | 81 | 153 | 4.0 | 9.0 | 0.00 | 0.00 | 0.00 | 56 | 1012.8 |
| 20260905200552 | 81 | 223 | 3.0 | 8.0 | 0.00 | 0.00 | 0.00 | 58 | 1012.8 |
| 20260905200127 | 81 | 232 | 4.0 | 10.0 | 0.00 | 0.00 | 0.00 | 56 | 1012.9 |
| 20260905195559 | 81 | 214 | 6.0 | 10.0 | 0.00 | 0.00 | 0.00 | 57 | 1013.0 |
| 20260905195056 | 82 | 208 | 4.0 | 11.0 | 0.00 | 0.00 | 0.00 | 57 | 1013.1 |
| 20260905194607 | 82 | 184 | 3.0 | 11.0 | 0.00 | 0.00 | 0.00 | 55 | 1013.1 |
| 20260905194059 | 81 | 139 | 3.0 | 7.0 | 0.00 | 0.00 | 0.00 | 57 | 1013.0 |
| 20260905193555 | 81 | 266 | 2.0 | 9.0 | 0.00 | 0.00 | 0.00 | 55 | 1013.1 |
| 20260905193104 | 81 | 291 | 3.0 | 9.0 | 0.00 | 0.00 | 0.00 | 56 | 1013.1 |
| 20260905192557 | 81 | 218 | 3.0 | 7.0 | 0.00 | 0.00 | 0.00 | 57 | 1013.1 |
| 20260905192055 | 81 | 202 | 2.0 | 7.0 | 0.00 | 0.00 | 0.00 | 56 | 1013.2 |
| 20260905191602 | 80 | 163 | 2.0 | 9.0 | 0.00 | 0.00 | 0.00 | 57 | 1013.2 |
| 20260905191055 | 80 | 238 | 3.0 | 9.0 | 0.00 | 0.00 | 0.00 | 56 | 1013.3 |
| 20260905190556 | 80 | 150 | 4.0 | 10.0 | 0.00 | 0.00 | 0.00 | 55 | 1013.4 |
| 20260905185555 | 80 | 205 | 2.0 | 6.0 | 0.00 | 0.00 | 0.00 | 53 | 1013.5 |
| 20260905185059 | 80 | 243 | 3.0 | 7.0 | 0.00 | 0.00 | 0.00 | 55 | 1013.6 |
| 20260905184602 | 80 | 202 | 3.0 | 7.0 | 0.00 | 0.00 | 0.00 | 57 | 1013.5 |
| 20260905184059 | 80 | 248 | 3.0 | 6.0 | 0.00 | 0.00 | 0.00 | 56 | 1013.5 |
| 20260905183556 | 81 | 247 | 2.0 | 6.0 | 0.00 | 0.00 | 0.00 | 55 | 1013.6 |
| 20260905183107 | 81 | 275 | 1.0 | 4.0 | 0.00 | 0.00 | 0.00 | 50 | 1013.6 |
| 20260905182631 | 80 | 0 | 1.0 | 4.0 | 0.00 | 0.00 | 0.00 | 51 | 1013.7 |
| 20260905182055 | 80 | 99 | 0.0 | 7.0 | 0.00 | 0.00 | 0.00 | 52 | 1013.7 |
| 20260905181603 | 80 | 55 | 2.0 | 7.0 | 0.00 | 0.00 | 0.00 | 51 | 1013.8 |
| 20260905181053 | 79 | 115 | 1.0 | 7.0 | 0.00 | 0.00 | 0.00 | 51 | 1013.8 |
| 20260905180555 | 79 | 219 | 2.0 | 7.0 | 0.00 | 0.00 | 0.00 | 51 | 1013.8 |
| 20260905180114 | 79 | 78 | 3.0 | 6.0 | 0.00 | 0.00 | 0.00 | 52 | 1013.8 |
| 20260905175556 | 79 | 315 | 0.0 | 3.0 | 0.00 | 0.00 | 0.00 | 55 | 1013.8 |
| 20260905175059 | 78 | 71 | 0.0 | 5.0 | 0.00 | 0.00 | 0.00 | 53 | 1013.7 |
| 20260905174605 | 77 | 0 | 0.0 | 5.0 | 0.00 | 0.00 | 0.00 | 57 | 1013.7 |
| 20260905174055 | 77 | 194 | 2.0 | 7.0 | 0.00 | 0.00 | 0.00 | 58 | 1013.7 |
| 20260905173556 | 77 | 0 | 3.0 | 7.0 | 0.00 | 0.00 | 0.00 | 58 | 1013.6 |
| 20260905173126 | 78 | 229 | 2.0 | 4.0 | 0.00 | 0.00 | 0.00 | 59 | 1013.7 |
| 20260905172555 | 78 | 179 | 0.0 | 6.0 | 0.00 | 0.00 | 0.00 | 61 | 1013.6 |
| 20260905172055 | 77 | 0 | 1.0 | 6.0 | 0.00 | 0.00 | 0.00 | 61 | 1013.7 |
| 20260905171603 | 77 | 0 | 2.0 | 6.0 | 0.00 | 0.00 | 0.00 | 61 | 1013.7 |
| 20260905171056 | 76 | 119 | 2.0 | 6.0 | 0.00 | 0.00 | 0.00 | 61 | 1013.7 |
| 20260905170556 | 76 | 0 | 1.0 | 7.0 | 0.00 | 0.00 | 0.00 | 64 | 1013.6 |
| 20260905170105 | 76 | 200 | 2.0 | 7.0 | 0.00 | 0.00 | 0.00 | 63 | 1013.7 |
| 20260905165555 | 76 | 0 | 1.0 | 5.0 | 0.00 | 0.00 | 0.00 | 64 | 1013.6 |
| 20260905165059 | 76 | 0 | 2.0 | 6.0 | 0.00 | 0.00 | 0.00 | 63 | 1013.5 |
| 20260905164615 | 76 | 71 | 2.0 | 6.0 | 0.00 | 0.00 | 0.00 | 61 | 1013.5 |
| 20260905164057 | 76 | 71 | 0.0 | 4.0 | 0.00 | 0.00 | 0.00 | 65 | 1013.4 |
| 20260905163556 | 76 | 120 | 1.0 | 4.0 | 0.00 | 0.00 | 0.00 | 65 | 1013.4 |
| 20260905163101 | 76 | 0 | 1.0 | 4.0 | 0.00 | 0.00 | 0.00 | 65 | 1013.3 |
| 20260905162556 | 76 | 0 | 0.0 | 3.0 | 0.00 | 0.00 | 0.00 | 68 | 1013.3 |
| 20260905162056 | 75 | 0 | 0.0 | 3.0 | 0.00 | 0.00 | 0.00 | 68 | 1013.2 |
| 20260905161603 | 75 | 0 | 0.0 | 3.0 | 0.00 | 0.00 | 0.00 | 70 | 1013.2 |
| 20260905161055 | 74 | 71 | 0.0 | 3.0 | 0.00 | 0.00 | 0.00 | 71 | 1013.1 |
| 20260905160555 | 74 | 0 | 0.0 | 3.0 | 0.00 | 0.00 | 0.00 | 71 | 1013.1 |
| 20260905160101 | 74 | 99 | 0.0 | 3.0 | 0.00 | 0.00 | 0.00 | 72 | 1013.1 |
| 20260905155555 | 74 | 85 | 0.0 | 2.0 | 0.00 | 0.00 | 0.00 | 74 | 1013.1 |
| 20260905155057 | 73 | 0 | 0.0 | 2.0 | 0.00 | 0.00 | 0.00 | 74 | 1013.1 |
| 20260905154603 | 73 | 0 | 0.0 | 2.0 | 0.00 | 0.00 | 0.00 | 75 | 1013.2 |
| 20260905154056 | 72 | 0 | 0.0 | 1.0 | 0.00 | 0.00 | 0.00 | 76 | 1013.1 |
| 20260905153559 | 72 | 49 | 0.0 | 2.0 | 0.00 | 0.00 | 0.00 | 76 | 1013.0 |
| 20260905153102 | 71 | 0 | 0.0 | 2.0 | 0.00 | 0.00 | 0.00 | 80 | 1013.0 |
| 20260905152555 | 70 | 0 | 0.0 | 1.0 | 0.00 | 0.00 | 0.00 | 82 | 1012.9 |
| 20260905152055 | 69 | 0 | 0.0 | 1.0 | 0.00 | 0.00 | 0.00 | 84 | 1012.9 |
| 20260905151601 | 69 | 0 | 0.0 | 2.0 | 0.00 | 0.00 | 0.00 | 85 | 1013.0 |
| 20260905151055 | 68 | 0 | 0.0 | 2.0 | 0.00 | 0.00 | 0.00 | 86 | 1012.9 |
| 20260905150559 | 68 | 49 | 0.0 | 2.0 | 0.00 | 0.00 | 0.00 | 87 | 1013.0 |
| 20260905150109 | 67 | 0 | 0.0 | 2.0 | 0.00 | 0.00 | 0.00 | 89 | 1012.9 |
| 20260905145555 | 66 | 0 | 0.0 | 2.0 | 0.00 | 0.00 | 0.00 | 90 | 1012.9 |
| 20260905145055 | 66 | 29 | 0.0 | 0.0 | 0.00 | 0.00 | 0.00 | 90 | 1012.9 |
| 20260905144602 | 65 | 0 | 0.0 | 0.0 | 0.00 | 0.00 | 0.00 | 91 | 1012.9 |
| 20260905144055 | 65 | 0 | 0.0 | 3.0 | 0.00 | 0.00 | 0.00 | 92 | 1012.9 |
| 20260905143555 | 64 | 0 | 1.0 | 3.0 | 0.00 | 0.00 | 0.00 | 92 | 1012.8 |
| 20260905143105 | 64 | 350 | 0.0 | 0.0 | 0.00 | 0.00 | 0.00 | 92 | 1012.7 |
| 20260905142555 | 64 | 0 | 0.0 | 0.0 | 0.00 | 0.00 | 0.00 | 92 | 1012.6 |
| 20260905142056 | 64 | 0 | 0.0 | 0.0 | 0.00 | 0.00 | 0.00 | 93 | 1012.7 |
| 20260905141600 | 64 | 0 | 0.0 | 0.0 | 0.00 | 0.00 | 0.00 | 93 | 1012.8 |
| 20260905141055 | 63 | 0 | 0.0 | 1.0 | 0.00 | 0.00 | 0.00 | 93 | 1012.7 |
| 20260905140556 | 63 | 0 | 0.0 | 3.0 | 0.00 | 0.00 | 0.00 | 93 | 1012.6 |
| 20260905140108 | 63 | 341 | 1.0 | 3.0 | 0.00 | 0.00 | 0.00 | 92 | 1012.6 |
| 20260905135556 | 63 | 0 | 0.0 | 3.0 | 0.00 | 0.00 | 0.00 | 92 | 1012.5 |
| 20260905135056 | 63 | 0 | 0.0 | 1.0 | 0.00 | 0.00 | 0.00 | 92 | 1012.6 |
| 20260905134606 | 63 | 352 | 0.0 | 1.0 | 0.00 | 0.00 | 0.00 | 92 | 1012.4 |
| 20260905134055 | 63 | 0 | 0.0 | 2.0 | 0.00 | 0.00 | 0.00 | 92 | 1012.4 |
| 20260905133556 | 63 | 0 | 0.0 | 2.0 | 0.00 | 0.00 | 0.00 | 92 | 1012.3 |
| 20260905133102 | 63 | 0 | 0.0 | 0.0 | 0.00 | 0.00 | 0.00 | 92 | 1012.2 |
| 20260905132555 | 63 | 0 | 0.0 | 1.0 | 0.00 | 0.00 | 0.00 | 92 | 1012.2 |
| 20260905132058 | 63 | 0 | 0.0 | 2.0 | 0.00 | 0.00 | 0.00 | 92 | 1012.1 |
| 20260905131600 | 63 | 0 | 1.0 | 2.0 | 0.00 | 0.00 | 0.00 | 92 | 1012.1 |
| 20260905131056 | 63 | 28 | 0.0 | 2.0 | 0.00 | 0.00 | 0.00 | 92 | 1012.1 |
| 20260905130556 | 63 | 0 | 0.0 | 0.0 | 0.00 | 0.00 | 0.00 | 92 | 1012.0 |
| 20260905130059 | 63 | 0 | 0.0 | 3.0 | 0.00 | 0.00 | 0.00 | 92 | 1012.1 |
| 20260905125555 | 63 | 0 | 0.0 | 4.0 | 0.00 | 0.00 | 0.00 | 92 | 1012.0 |
| 20260905125056 | 63 | 0 | 1.0 | 4.0 | 0.00 | 0.00 | 0.00 | 92 | 1012.1 |
| 20260905124608 | 63 | 351 | 0.0 | 3.0 | 0.00 | 0.00 | 0.00 | 92 | 1012.1 |
| 20260905124055 | 63 | 0 | 0.0 | 3.0 | 0.00 | 0.00 | 0.00 | 92 | 1012.1 |
| 20260905123555 | 63 | 0 | 0.0 | 3.0 | 0.00 | 0.00 | 0.00 | 92 | 1012.1 |
| 20260905123106 | 63 | 352 | 1.0 | 3.0 | 0.00 | 0.00 | 0.00 | 92 | 1011.9 |
| 20260905122556 | 63 | 352 | 0.0 | 3.0 | 0.00 | 0.00 | 0.00 | 92 | 1012.0 |
| 20260905122100 | 63 | 0 | 0.0 | 0.0 | 0.00 | 0.00 | 0.00 | 92 | 1012.1 |
| 20260905121601 | 63 | 0 | 0.0 | 1.0 | 0.00 | 0.00 | 0.00 | 92 | 1012.1 |
| 20260905121100 | 63 | 0 | 0.0 | 1.0 | 0.00 | 0.00 | 0.00 | 92 | 1012.1 |
| 20260905120555 | 63 | 0 | 0.0 | 1.0 | 0.00 | 0.00 | 0.00 | 92 | 1012.1 |
| 20260905120107 | 63 | 0 | 0.0 | 2.0 | 0.00 | 0.00 | 0.00 | 92 | 1012.1 |
| 20260905115556 | 63 | 0 | 0.0 | 2.0 | 0.00 | 0.00 | 0.00 | 92 | 1012.1 |
| 20260905115055 | 63 | 19 | 0.0 | 3.0 | 0.00 | 0.00 | 0.00 | 92 | 1012.0 |
| 20260905114611 | 63 | 0 | 1.0 | 3.0 | 0.00 | 0.00 | 0.00 | 92 | 1012.1 |
| 20260905114056 | 63 | 352 | 1.0 | 3.0 | 0.00 | 0.00 | 0.00 | 92 | 1012.1 |
| 20260905113555 | 63 | 342 | 1.0 | 3.0 | 0.00 | 0.00 | 0.00 | 92 | 1012.0 |
| 20260905113100 | 63 | 0 | 0.0 | 0.0 | 0.00 | 0.00 | 0.00 | 91 | 1012.0 |
| 20260905112556 | 63 | 0 | 0.0 | 0.0 | 0.00 | 0.00 | 0.00 | 92 | 1012.1 |
| 20260905112055 | 63 | 0 | 0.0 | 0.0 | 0.00 | 0.00 | 0.00 | 92 | 1012.1 |
| 20260905111652 | 63 | 0 | 0.0 | 3.0 | 0.00 | 0.00 | 0.00 | 92 | 1012.1 |
| 20260905111057 | 63 | 0 | 0.0 | 3.0 | 0.00 | 0.00 | 0.00 | 91 | 1012.1 |
| 20260905110556 | 63 | 0 | 0.0 | 0.0 | 0.00 | 0.00 | 0.00 | 91 | 1012.1 |
| 20260905110104 | 63 | 0 | 0.0 | 0.0 | 0.00 | 0.00 | 0.00 | 91 | 1012.0 |
| 20260905105555 | 63 | 0 | 0.0 | 0.0 | 0.00 | 0.00 | 0.00 | 91 | 1012.1 |
| 20260905105054 | 63 | 0 | 0.0 | 0.0 | 0.00 | 0.00 | 0.00 | 91 | 1012.2 |
| 20260905104600 | 64 | 0 | 0.0 | 0.0 | 0.00 | 0.00 | 0.00 | 91 | 1012.2 |
| 20260905104054 | 64 | 0 | 0.0 | 0.0 | 0.00 | 0.00 | 0.00 | 91 | 1012.2 |
| 20260905103553 | 64 | 0 | 0.0 | 2.0 | 0.00 | 0.00 | 0.00 | 91 | 1012.3 |
| 20260905103104 | 64 | 0 | 0.0 | 2.0 | 0.00 | 0.00 | 0.00 | 91 | 1012.2 |
| 20260905102556 | 64 | 0 | 0.0 | 2.0 | 0.00 | 0.00 | 0.00 | 91 | 1012.2 |
| 20260905102053 | 64 | 0 | 0.0 | 0.0 | 0.00 | 0.00 | 0.00 | 91 | 1012.3 |
| 20260905101559 | 64 | 0 | 0.0 | 2.0 | 0.00 | 0.00 | 0.00 | 91 | 1012.3 |
| 20260905101054 | 64 | 0 | 0.0 | 2.0 | 0.00 | 0.00 | 0.00 | 91 | 1012.3 |
| 20260905100553 | 64 | 23 | 0.0 | 1.0 | 0.00 | 0.00 | 0.00 | 91 | 1012.3 |
| 20260905095554 | 64 | 0 | 0.0 | 1.0 | 0.00 | 0.00 | 0.00 | 90 | 1012.2 |
| 20260905095053 | 64 | 0 | 0.0 | 2.0 | 0.00 | 0.00 | 0.00 | 90 | 1012.2 |
| 20260905094557 | 64 | 0 | 0.0 | 2.0 | 0.00 | 0.00 | 0.00 | 91 | 1012.3 |
| 20260905094054 | 64 | 0 | 0.0 | 2.0 | 0.00 | 0.00 | 0.00 | 91 | 1012.3 |
| 20260905093554 | 64 | 0 | 0.0 | 2.0 | 0.00 | 0.00 | 0.00 | 90 | 1012.4 |
| 20260905093122 | 64 | 23 | 0.0 | 2.0 | 0.00 | 0.00 | 0.00 | 90 | 1012.3 |
| 20260905092552 | 64 | 24 | 0.0 | 2.0 | 0.00 | 0.00 | 0.00 | 90 | 1012.4 |
| 20260905092052 | 64 | 0 | 0.0 | 0.0 | 0.00 | 0.00 | 0.00 | 90 | 1012.4 |
| 20260905091600 | 64 | 0 | 0.0 | 0.0 | 0.00 | 0.00 | 0.00 | 90 | 1012.4 |
| 20260905091056 | 64 | 0 | 0.0 | 0.0 | 0.00 | 0.00 | 0.00 | 89 | 1012.5 |
| 20260905090552 | 64 | 0 | 0.0 | 0.0 | 0.00 | 0.00 | 0.00 | 89 | 1012.4 |
| 20260905085554 | 64 | 0 | 0.0 | 0.0 | 0.00 | 0.00 | 0.00 | 89 | 1012.5 |
| 20260905085053 | 64 | 0 | 0.0 | 0.0 | 0.00 | 0.00 | 0.00 | 89 | 1012.5 |
| 20260905084605 | 64 | 0 | 0.0 | 0.0 | 0.00 | 0.00 | 0.00 | 89 | 1012.5 |
| 20260905084054 | 64 | 0 | 0.0 | 0.0 | 0.00 | 0.00 | 0.00 | 89 | 1012.6 |
| 20260905083553 | 64 | 0 | 0.0 | 1.0 | 0.00 | 0.00 | 0.00 | 89 | 1012.7 |
| 20260905083101 | 64 | 0 | 0.0 | 1.0 | 0.00 | 0.00 | 0.00 | 89 | 1012.7 |
| 20260905082553 | 64 | 0 | 0.0 | 1.0 | 0.00 | 0.00 | 0.00 | 89 | 1012.6 |
| 20260905082053 | 64 | 0 | 0.0 | 1.0 | 0.00 | 0.00 | 0.00 | 88 | 1012.7 |
| 20260905081556 | 65 | 0 | 0.0 | 0.0 | 0.00 | 0.00 | 0.00 | 88 | 1012.7 |
| 20260905081053 | 65 | 0 | 0.0 | 0.0 | 0.00 | 0.00 | 0.00 | 88 | 1012.7 |
| 20260905080555 | 65 | 0 | 0.0 | 0.0 | 0.00 | 0.00 | 0.00 | 88 | 1012.7 |
| 20260905080054 | 65 | 0 | 0.0 | 0.0 | 0.00 | 0.00 | 0.00 | 88 | 1012.7 |
| 20260905075554 | 65 | 0 | 0.0 | 0.0 | 0.00 | 0.00 | 0.00 | 88 | 1012.7 |
| 20260905075053 | 65 | 0 | 0.0 | 0.0 | 0.00 | 0.00 | 0.00 | 89 | 1012.6 |
| 20260905074609 | 65 | 0 | 0.0 | 2.0 | 0.00 | 0.00 | 0.00 | 89 | 1012.6 |
| 20260905074052 | 65 | 0 | 0.0 | 2.0 | 0.00 | 0.00 | 0.00 | 89 | 1012.7 |
| 20260905073556 | 65 | 0 | 0.0 | 2.0 | 0.00 | 0.00 | 0.00 | 89 | 1012.5 |
| 20260905073103 | 65 | 0 | 1.0 | 2.0 | 0.00 | 0.00 | 0.00 | 89 | 1012.7 |
| 20260905072555 | 65 | 30 | 0.0 | 2.0 | 0.00 | 0.00 | 0.00 | 89 | 1012.7 |
| 20260905072055 | 65 | 0 | 0.0 | 0.0 | 0.00 | 0.00 | 0.00 | 88 | 1012.5 |
| 20260905071558 | 65 | 0 | 0.0 | 0.0 | 0.00 | 0.00 | 0.00 | 88 | 1012.5 |
| 20260905071056 | 65 | 0 | 0.0 | 0.0 | 0.00 | 0.00 | 0.00 | 88 | 1012.5 |
| 20260905070558 | 65 | 0 | 0.0 | 2.0 | 0.00 | 0.00 | 0.00 | 87 | 1012.5 |
| 20260905065555 | 65 | 0 | 0.0 | 2.0 | 0.00 | 0.00 | 0.00 | 88 | 1012.4 |
| 20260905065055 | 65 | 44 | 0.0 | 2.0 | 0.00 | 0.00 | 0.00 | 88 | 1012.4 |
| 20260905064626 | 65 | 0 | 0.0 | 2.0 | 0.00 | 0.00 | 0.00 | 88 | 1012.3 |
| 20260905064054 | 65 | 57 | 0.0 | 2.0 | 0.00 | 0.00 | 0.00 | 88 | 1012.3 |
| 20260905063556 | 65 | 0 | 0.0 | 0.0 | 0.00 | 0.00 | 0.00 | 88 | 1012.3 |
| 20260905063101 | 65 | 0 | 0.0 | 0.0 | 0.00 | 0.00 | 0.00 | 88 | 1012.3 |
| 20260905062556 | 66 | 0 | 0.0 | 0.0 | 0.00 | 0.00 | 0.00 | 88 | 1012.2 |
| 20260905062056 | 66 | 0 | 0.0 | 2.0 | 0.00 | 0.00 | 0.00 | 88 | 1012.2 |
| 20260905061601 | 66 | 0 | 0.0 | 2.0 | 0.00 | 0.00 | 0.00 | 88 | 1012.3 |
| 20260905061056 | 65 | 0 | 0.0 | 2.0 | 0.00 | 0.00 | 0.00 | 88 | 1012.3 |
| 20260905060556 | 65 | 0 | 0.0 | 2.0 | 0.00 | 0.00 | 0.00 | 87 | 1012.3 |
| 20260905060055 | 65 | 0 | 0.0 | 3.0 | 0.00 | 0.00 | 0.00 | 87 | 1012.3 |
| 20260905055558 | 66 | 0 | 0.0 | 3.0 | 0.00 | 0.00 | 0.00 | 87 | 1012.2 |
| 20260905055056 | 66 | 0 | 0.0 | 0.0 | 0.00 | 0.00 | 0.00 | 87 | 1012.3 |
| 20260905054604 | 66 | 0 | 0.0 | 0.0 | 0.00 | 0.00 | 0.00 | 87 | 1012.3 |
| 20260905054056 | 66 | 0 | 0.0 | 1.0 | 0.00 | 0.00 | 0.00 | 87 | 1012.4 |
| 20260905053556 | 66 | 0 | 0.0 | 1.0 | 0.00 | 0.00 | 0.00 | 87 | 1012.3 |
| 20260905053100 | 66 | 0 | 0.0 | 0.0 | 0.00 | 0.00 | 0.00 | 86 | 1012.2 |
| 20260905052555 | 66 | 0 | 0.0 | 0.0 | 0.00 | 0.00 | 0.00 | 87 | 1012.3 |
| 20260905052056 | 66 | 0 | 0.0 | 0.0 | 0.00 | 0.00 | 0.00 | 87 | 1012.4 |
| 20260905051558 | 66 | 0 | 0.0 | 0.0 | 0.00 | 0.00 | 0.00 | 87 | 1012.3 |
| 20260905051055 | 66 | 0 | 0.0 | 0.0 | 0.00 | 0.00 | 0.00 | 87 | 1012.3 |
| 20260905050556 | 66 | 0 | 0.0 | 2.0 | 0.00 | 0.00 | 0.00 | 87 | 1012.3 |
| 20260905050100 | 66 | 0 | 0.0 | 2.0 | 0.00 | 0.00 | 0.00 | 87 | 1012.3 |
| 20260905045555 | 66 | 0 | 0.0 | 2.0 | 0.00 | 0.00 | 0.00 | 86 | 1012.2 |
| 20260905045055 | 66 | 0 | 0.0 | 1.0 | 0.00 | 0.00 | 0.00 | 87 | 1012.3 |
| 20260905044604 | 66 | 0 | 0.0 | 3.0 | 0.00 | 0.00 | 0.00 | 87 | 1012.2 |
| 20260905044057 | 66 | 0 | 0.0 | 3.0 | 0.00 | 0.00 | 0.00 | 86 | 1012.0 |
| 20260905043555 | 67 | 0 | 0.0 | 0.0 | 0.00 | 0.00 | 0.00 | 86 | 1011.8 |
| 20260905043106 | 67 | 0 | 0.0 | 0.0 | 0.00 | 0.00 | 0.00 | 86 | 1011.7 |
| 20260905042555 | 67 | 0 | 0.0 | 0.0 | 0.00 | 0.00 | 0.00 | 86 | 1011.7 |
| 20260905042056 | 67 | 0 | 0.0 | 0.0 | 0.00 | 0.00 | 0.00 | 86 | 1011.8 |
| 20260905041601 | 67 | 0 | 0.0 | 3.0 | 0.00 | 0.00 | 0.00 | 85 | 1011.7 |
| 20260905041055 | 67 | 0 | 0.0 | 3.0 | 0.00 | 0.00 | 0.00 | 85 | 1011.6 |
| 20260905040555 | 67 | 343 | 0.0 | 3.0 | 0.00 | 0.00 | 0.00 | 85 | 1011.6 |
| 20260905035555 | 68 | 0 | 0.0 | 1.0 | 0.00 | 0.00 | 0.00 | 85 | 1011.9 |
| 20260905035056 | 68 | 0 | 0.0 | 1.0 | 0.00 | 0.00 | 0.00 | 85 | 1011.9 |
| 20260905034609 | 68 | 0 | 0.0 | 2.0 | 0.00 | 0.00 | 0.00 | 85 | 1011.9 |
| 20260905034056 | 68 | 346 | 0.0 | 2.0 | 0.00 | 0.00 | 0.00 | 85 | 1011.7 |
| 20260905033555 | 68 | 348 | 0.0 | 2.0 | 0.00 | 0.00 | 0.00 | 85 | 1011.6 |
| 20260905033056 | 68 | 0 | 0.0 | 0.0 | 0.00 | 0.00 | 0.00 | 84 | 1011.5 |
| 20260905032556 | 69 | 0 | 0.0 | 1.0 | 0.00 | 0.00 | 0.00 | 84 | 1011.5 |
| 20260905032055 | 69 | 0 | 0.0 | 3.0 | 0.00 | 0.00 | 0.00 | 84 | 1011.4 |
| 20260905031556 | 69 | 0 | 0.0 | 4.0 | 0.00 | 0.00 | 0.00 | 85 | 1011.3 |
| 20260905031056 | 69 | 236 | 0.0 | 4.0 | 0.00 | 0.00 | 0.00 | 84 | 1011.3 |
| 20260905030555 | 69 | 216 | 1.0 | 4.0 | 0.00 | 0.00 | 0.00 | 84 | 1011.2 |
| 20260905030117 | 69 | 0 | 0.0 | 2.0 | 0.00 | 0.00 | 0.00 | 84 | 1011.2 |
| 20260905025555 | 69 | 0 | 0.0 | 4.0 | 0.00 | 0.00 | 0.00 | 84 | 1011.1 |
| 20260905025056 | 69 | 0 | 1.0 | 6.0 | 0.00 | 0.00 | 0.00 | 84 | 1011.1 |
| 20260905024606 | 69 | 265 | 0.0 | 7.0 | 0.00 | 0.00 | 0.00 | 84 | 1011.1 |
| 20260905024056 | 69 | 276 | 3.0 | 10.0 | 0.00 | 0.00 | 0.00 | 84 | 1011.1 |
| 20260905023600 | 69 | 242 | 3.0 | 10.0 | 0.00 | 0.00 | 0.00 | 84 | 1011.1 |
| 20260905023101 | 69 | 269 | 7.0 | 10.0 | 0.00 | 0.00 | 0.00 | 83 | 1011.1 |
| 20260905022555 | 69 | 262 | 6.0 | 9.0 | 0.00 | 0.00 | 0.00 | 83 | 1011.2 |
| 20260905022055 | 70 | 294 | 2.0 | 8.0 | 0.00 | 0.00 | 0.00 | 82 | 1011.2 |
| 20260905021556 | 70 | 286 | 4.0 | 9.0 | 0.00 | 0.00 | 0.00 | 82 | 1011.2 |
| 20260905021055 | 70 | 158 | 1.0 | 10.0 | 0.00 | 0.00 | 0.00 | 81 | 1011.1 |
| 20260905020555 | 70 | 175 | 4.0 | 11.0 | 0.00 | 0.00 | 0.00 | 81 | 1011.2 |
| 20260905020107 | 70 | 276 | 6.0 | 11.0 | 0.00 | 0.00 | 0.00 | 80 | 1011.2 |
| 20260905015555 | 71 | 262 | 5.0 | 11.0 | 0.00 | 0.00 | 0.00 | 81 | 1011.2 |
| 20260905015056 | 71 | 264 | 4.0 | 10.0 | 0.00 | 0.00 | 0.00 | 81 | 1011.3 |
| 20260905014604 | 71 | 0 | 5.0 | 10.0 | 0.00 | 0.00 | 0.00 | 81 | 1011.4 |
| 20260905014056 | 71 | 325 | 3.0 | 10.0 | 0.00 | 0.00 | 0.00 | 80 | 1011.3 |
| 20260905013555 | 71 | 256 | 7.0 | 10.0 | 0.00 | 0.00 | 0.00 | 78 | 1011.4 |
| 20260905013059 | 71 | 244 | 4.0 | 10.0 | 0.00 | 0.00 | 0.00 | 78 | 1011.4 |
| 20260905012558 | 72 | 267 | 5.0 | 10.0 | 0.00 | 0.00 | 0.00 | 78 | 1011.3 |
| 20260905012058 | 72 | 292 | 6.0 | 10.0 | 0.00 | 0.00 | 0.00 | 76 | 1011.4 |
| 20260905011558 | 72 | 248 | 3.0 | 11.0 | 0.00 | 0.00 | 0.00 | 78 | 1011.5 |
| 20260905011055 | 72 | 275 | 4.0 | 11.0 | 0.00 | 0.00 | 0.00 | 78 | 1011.5 |
| 20260905010559 | 72 | 318 | 5.0 | 11.0 | 0.00 | 0.00 | 0.00 | 76 | 1011.6 |
| 20260905005556 | 73 | 203 | 4.0 | 11.0 | 0.00 | 0.00 | 0.00 | 75 | 1011.7 |
| 20260905005056 | 73 | 269 | 5.0 | 11.0 | 0.00 | 0.00 | 0.00 | 73 | 1011.7 |
| 20260905004609 | 73 | 167 | 5.0 | 11.0 | 0.00 | 0.00 | 0.00 | 73 | 1011.7 |
| 20260905004056 | 73 | 198 | 4.0 | 11.0 | 0.00 | 0.00 | 0.00 | 74 | 1011.6 |
| 20260905003556 | 73 | 175 | 3.0 | 9.0 | 0.00 | 0.00 | 0.00 | 73 | 1011.6 |
| 20260905003102 | 74 | 282 | 5.0 | 12.0 | 0.00 | 0.00 | 0.00 | 73 | 1011.5 |
| 20260905002555 | 74 | 285 | 2.0 | 12.0 | 0.00 | 0.00 | 0.00 | 74 | 1011.5 |
| 20260905002056 | 74 | 271 | 4.0 | 10.0 | 0.00 | 0.00 | 0.00 | 73 | 1011.4 |
| 20260905001608 | 74 | 264 | 5.0 | 11.0 | 0.00 | 0.00 | 0.00 | 74 | 1011.4 |
| 20260905001055 | 74 | 131 | 5.0 | 11.0 | 0.00 | 0.00 | 0.00 | 72 | 1011.4 |
| 20260905000556 | 74 | 214 | 4.0 | 11.0 | 0.00 | 0.00 | 0.00 | 73 | 1011.5 |
| 20260905000108 | 74 | 211 | 3.0 | 12.0 | 0.00 | 0.00 | 0.00 | 72 | 1011.4 |
| 20260904235555 | 74 | 171 | 4.0 | 12.0 | 0.00 | 0.00 | 0.00 | 72 | 1011.4 |
| 20260904235057 | 75 | 275 | 4.0 | 12.0 | 0.00 | 0.00 | 0.00 | 72 | 1011.4 |